DELTA 1 DEB

Satellite information

Favourite Embed

Satellite Type and Status

DEBRISIN ORBIT

Key statistics

Satellite DELTA 1 DEB at a glance.

Uptime

17938

Days in orbit

Revolutions

≈ 11.7

Per day

Orbit

MEO

Medium Earth Orbit

Inclination

102.5

Latest

Satellite identification and parameters

Extended collection of information and parameters for DELTA 1 DEB.

Object identification

Identified? True

Debris? True

Object name: DELTA 1 DEB

International designator: 1976-077BK

Object number (NORAD): 10762

Object ID (CCSDS): 10762

Country: UNITED STATES OF AMERICA (US)

Current information (Y/N): Y

RCS size: MEDIUM

Orbital parameters

Period: 123.102 minutes

Inclination: 102.5412 deg

SMA: 8197.274 km

Apoapsis: 2403.729 km

Periapsis: 1234.549 km

RAAN: 349.2169 deg

Eccentricy: 0.07131521

Argument of periapsis: 51.1229 deg

Mean anomaly: 315.1248 deg

Mean motion: 11.69764892 rev/day

Mean motion (dot): -0.00008889 rev/day2

B* drag term: -0.082090445 1/REarth

Two-line elements (TLE)

Creation date: Sept. 8, 2025, 3:16 a.m.

Reference frame: TEME

Reference center: EARTH

Epoch: Sept. 7, 2025, 9:17 p.m. UTC

TLE line 0: 0 DELTA 1 DEB

TLE line 1: 1 10762U 76077BK 25250.88728415 -.00008889 00000-0 -82090-1 0 9995

TLE line 2: 2 10762 102.5412 349.2169 0713152 51.1229 315.1248 11.69764892561702

Live tracking on map

Real-time ground track for satellite DELTA 1 DEB.

In-orbit conjunctions

A list of the most updated potential collisions computed for object DELTA 1 DEB.

Target Orbit TCA Probability of collision Miss distance Type
SECOR 4 (EGRS 4) SSO 2024-12-19 10:00:23 0.0001821489 992.0 (m) PAYLOAD

Associated space launch

Meteorological satellite using radiometric imaging

DELTA 1 DEB was lifted into orbit during the mission ‘Delta 2310 | NOAA 5’, on board a Delta 2310 space rocket.

The launch took place on July 29, 1976, 5:07 p.m. from Space Launch Complex 2W.

For more information about the launch, click the button.

Launch to space Delta 2310 | NOAA 5
Delta 2310 | NOAA 5

Agency: N/A

Status: Launch Successful

Launch date: July 29, 1976, 5:07 p.m. UTC

Rocket: Delta 2310

Launch pad: Space Launch Complex 2W

Location: Vandenberg SFB, CA, USA

...

Latest news about this satellite

There are no fresh news available about this satellite. Check back as we update our databases every day.


Newsletter sign-up

Weekly statistics, charts and insights to help you stay on top of the space industry.